Powrót do katalogu

STARLINK-37820

AktywnyŁącznośćSSO
NORAD 69423·PAYLOAD·🇺🇸 United States

Wystrzelony Jun 7, 2026 z Vandenberg Space Force Base

Loading…

Następne Przeloty (najbliższe 24 godziny)

TLE

ŚwieżeSource: CelesTrak SupGP

Epoka: Sep 14, 2026, 21:32 UTC

1 69423C 26126D   26257.89770833  .00031963  00000+0  99225-3 0  2576
2 69423  97.2847 119.1416 0001915  97.0593 174.7825 15.33420329    12

Śledź STARLINK-37820 w czasie rzeczywistym z AllMySat

Download on the App Store